Weather Service Report


666 
ASUS43 KBIS 310210
RWRBIS

NWR BROADCAST TEXT
NATIONAL WEATHER SERVICE BISMARCK ND
900 PM CDT TUE AUG 30 2016

NOTE: "FAIR" INDICATES FEW OR NO CLOUDS BELOW 12,000 FEET WITH NO
SIGNIFICANT WEATHER AND/OR OBSTRUCTIONS TO VISIBILITY.

  
CITY           SKY/WX    TMP DP  RH WIND       PRES   REMARKS
WILLISTON      CLEAR     77  51  40 E7        30.13S                  
MINOT          CLEAR     69  49  48 E8        30.17R                  
MINOT AFB      CLEAR     67  49  53 E8        30.16R                  
BISMARCK       CLOUDY    73  51  46 SE14      30.16S                  
DICKINSON      PTCLDY    70  53  54 E9        30.13R                  
GARRISON         N/A     69  54  58 E9        30.17R                  
HETTINGER ARPT CLEAR     76  62  62 E12       30.17R                  
JAMESTOWN      CLEAR     64  57  78 SE3       30.20S                  
CARRINGTON     FAIR      66  55  68 E6        30.23R                  
HAZEN          FAIR      64  50  59 CALM      30.17S HAZE             
LINTON         FAIR      72  59  64 E10       30.20S                  
MANDAN         FAIR      72  50  46 SE12      30.18R                  
OAKES            N/A    N/A N/A N/A MISG        N/A                   
RUGBY          FAIR      64  55  72 SE8       30.20R                  
STANLEY        FAIR      68  46  45 E6        30.20R                  
WATFORD CITY   FAIR      72  50  46 E9        30.14R                  
$$
  
CITY           SKY/WX    TMP DP  RH WIND       PRES   REMARKS
GRAND FORKS    PTCLDY    66  55  67 N5        30.19R                  
GRAND FORKS AF PTCLDY    66  54  64 NE5       30.20R                  
DEVILS LAKE    CLEAR     68  53  58 CALM      30.22R                  
FARGO          PTCLDY    67  56  67 E3        30.19R                  
CAVALIER       FAIR      63  54  72 CALM      30.21R                  
GRAFTON        FAIR      64  52  63 NE3       30.22R                  
GWINNER        FAIR      64  57  77 E5        30.20S                  
LANGDON        FAIR      64  50  59 NE9       30.23S                  
ROLLA          FAIR      61  54  77 E6        30.24R                  
$$
  
CITY           SKY/WX    TMP DP  RH WIND       PRES   REMARKS
ABERDEEN       CLOUDY    69  58  67 E6        30.19R                  
MOBRIDGE       CLOUDY    74  60  61 SE6       30.15R                  
BUFFALO          N/A     76  58  53 SE12      30.08S                  
RAPID CITY     MOCLDY    72  60  66 E6        30.18R                  
GLASGOW        CLEAR     80  59  48 E15       30.03S                  
WOLF POINT     CLEAR     80  58  46 E13       30.05S                  
GLENDIVE       PTCLDY    78  60  53 E8        30.08R                  
MILES CITY     CLEAR     86  52  30 SE15      30.00R                  
BAKER          CLEAR     75  58  55 SE14      30.11S                  
$$
  
CITY           SKY/WX    TMP DP  RH WIND       PRES   REMARKS
BILLINGS       PTCLDY    80  46  30 NE7       30.05S                  
GREAT FALLS    PTCLDY    79  46  31 E10       30.02F                  
REGINA         PTCLDY    72  50  46 E17       30.14S                  
ESTEVAN        PTCLDY    66  48  52 E9        30.15S                  
$$

  


667 
ASUS43 KBIS 310210
RWRND 

NORTH DAKOTA REGIONAL WEATHER ROUNDUP
NATIONAL WEATHER SERVICE BISMARCK ND
900 PM CDT TUE AUG 30 2016

NOTE: "FAIR" INDICATES FEW OR NO CLOUDS BELOW 12,000 FEET WITH NO
SIGNIFICANT WEATHER AND/OR OBSTRUCTIONS TO VISIBILITY.


NDZ001>003-009>011-017-310300-
NORTHWEST NORTH DAKOTA
  
CITY           SKY/WX    TMP DP  RH WIND       PRES   REMARKS
WILLISTON      CLEAR     77  51  40 E7        30.13S                  
MINOT          CLEAR     69  49  48 E8        30.17R                  
MINOT AFB      CLEAR     67  49  53 E8        30.16R                  
$$
 
NDZ018>021-031>035-040>046-310300-
SOUTHWEST NORTH DAKOTA
  
CITY           SKY/WX    TMP DP  RH WIND       PRES   REMARKS
BISMARCK       CLOUDY    73  51  46 SE14      30.16S                  
DICKINSON      PTCLDY    70  53  54 E9        30.13R                  
GARRISON         N/A     69  54  58 E9        30.17R                  
HETTINGER ARPT CLEAR     76  62  62 E12       30.17R                  
$$
 
NDZ004>008-012>016-024-026-027-054-310300-
NORTHEAST NORTH DAKOTA
  
CITY           SKY/WX    TMP DP  RH WIND       PRES   REMARKS
GRAND FORKS    PTCLDY    66  55  67 N5        30.19R                  
GRND FRKS AFB  CLEAR     66  54  64 NE5       30.20R                  
DEVILS LAKE    CLEAR     68  53  58 CALM      30.22R                  
$$
 
NDZ022-023-025-028>030-036>039-047>053-310300-
SOUTHEAST NORTH DAKOTA
  
CITY           SKY/WX    TMP DP  RH WIND       PRES   REMARKS
FARGO          PTCLDY    67  56  67 E3        30.19R                  
JAMESTOWN      CLEAR     64  57  78 SE3       30.20S                  
$$ 

  

Return to Home page


Western Regional Climate Center, wrcc@dri.edu